Content
SEND FEEDBACK

Daily
Averages
Monthly
Summary
Canada

CHARLOTTETOWN, PRINCE EDWARD ISLAND


Home > North America > Canada > Prince Edward Island
Elevation: 181 feet     Latitude: 46 17N     Longitude: 063 08W

WEATHER
 
SELECT A DAY
Number of Records: 195,296;   Date Range: 1/1/95 - 8/20/14
 
SHARE

PRINT THIS DATA

[ ← Previous Day ]
WEATHER ALMANAC - FEBRUARY 4, 2013
[ Next Day → ]
[ °C ]   °F
Weather ElementAverageHighLow
Temperature23.1 °F28.4 °F (1:00 am)15.8 °F (10:00 pm)
Dewpoint19.7 °F28.4 °F (1:00 am)5 °F (11:00 pm)
Humidity87 %100 % (1:00 am)55 % (8:00 pm)
Barometer29.22 in29.50 in (1:00 am)29.04 in (11:00 am)
Wind Speed18.3 mph27.6 mph (9:00 pm)
Wind Gust44.9 mph (9:00 pm)
Weather ElementAverage
Visibility2.7 mi
Wind DirectionWNW (297.1 °)

Weather ElementTotal
Precipitation---
Heating Degree Days42.9 (Base 65)
Averaged from 38 records on February 4, 2013
WEATHER CONDITIONS BREAKOUT
WIND DIRECTION BREAKOUT
WEATHER BY HOUR - FEBRUARY 4, 2013
[ °C ]   °F
Local TimeTemperatureDewpointHumidityBarometerVisibilityWind DirectionWind SpeedGust SpeedPrecipitationEventsConditions
1:00 AM28.4 °F28.4 °F100 %29.50 in3.0 miNNW (330°)4.6 mphOvercast
1:06 AM28.4 °F28.4 °F100 %29.49 in2.0 miNNW (330°)4.6 mphLight Freezing Drizzle
1:25 AM28.4 °F28.4 °F100 %29.48 in0.8 miNNW (340°)4.6 mphLight Freezing Drizzle
2:00 AM28.0 °F28.0 °F100 %29.44 in1.0 miNNW (340°)5.8 mphRainLight Freezing Drizzle
2:00 AM28.4 °F28.4 °F100 %29.44 in0.6 miNorth (350°)5.8 mphLight Freezing Drizzle
3:00 AM28.4 °F28.4 °F100 %29.40 in0.8 miNNW (340°)5.8 mphLight Freezing Drizzle
4:00 AM28.4 °F28.4 °F100 %29.34 in0.8 miNorth (350°)6.9 mphSnowLight Snow
5:00 AM28.4 °F28.4 °F100 %29.29 in0.8 miNorth (350°)8.1 mphSnowLight Snow
7:00 AM28.4 °F28.4 °F100 %29.18 in1.0 miNorth (350°)15.0 mph21.9 mphSnowLight Snow
8:00 AM28.4 °F26.6 °F93 %29.14 in1.0 miNNW (330°)15.0 mph26.5 mphSnowLight Snow
8:00 AM28.0 °F27.0 °F95 %29.14 in1.0 miNNW (330°)15.0 mphSnowLight Snow
8:41 AM28.4 °F26.6 °F93 %29.10 in0.8 miNNW (330°)16.1 mph25.3 mphSnowLight Snow
9:00 AM28.4 °F26.6 °F93 %29.08 in0.8 miNW (320°)19.6 mph29.9 mphSnowLight Snow
10:00 AM26.6 °F24.8 °F93 %29.05 in1.0 miNW (320°)24.2 mph34.5 mphSnowLight Snow
10:18 AM26.6 °F24.8 °F93 %29.05 in0.6 miNW (310°)25.3 mph35.7 mphSnowLight Snow
11:00 AM24.8 °F21.2 °F86 %29.04 in0.8 miNW (310°)21.9 mph40.3 mphSnowLight Snow
11:32 AM23.0 °F21.2 °F93 %29.04 in1.0 miNW (310°)24.2 mph40.3 mphSnowLight Snow
12:00 PM21.2 °F19.4 °F93 %29.04 in1.0 miWNW (300°)26.5 mph39.1 mphSnowLight Snow
12:29 PM21.2 °F17.6 °F86 %29.04 in2.5 miWNW (290°)25.3 mph36.8 mphSnowLight Snow
1:00 PM21.2 °F15.8 °F80 %29.04 in2.0 miWNW (290°)25.3 mph36.8 mphSnowLight Snow
2:00 PM20.0 °F16.0 °F79 %29.07 in2.0 miWest (280°)19.6 mphSnowLight Snow
2:00 PM21.2 °F15.8 °F80 %29.07 in2.0 miWest (280°)19.6 mph34.5 mphSnowLight Snow
2:34 PM19.4 °F17.6 °F93 %29.09 in1.0 miWest (270°)19.6 mph28.8 mphSnowLight Snow
2:47 PM19.4 °F17.6 °F93 %29.10 in0.6 miWest (260°)18.4 mph26.5 mphSnowLight Snow
3:00 PM19.4 °F17.6 °F93 %29.11 in0.6 miWest (270°)20.7 mph29.9 mphSnowLight Snow
4:00 PM21.2 °F17.6 °F86 %29.15 in2.5 miWest (270°)17.3 mph35.7 mphSnowLight Snow
4:09 PM21.2 °F17.6 °F86 %29.15 in0.8 miWest (260°)24.2 mph33.4 mphSnowLight Snow
4:37 PM21.2 °F19.4 °F93 %29.16 in0.5 miWest (260°)19.6 mph31.1 mphSnowSnow
5:00 PM19.4 °F15.8 °F86 %29.19 in1.5 miWest (280°)23.0 mph38.0 mphSnowLight Snow
5:15 PM19.4 °F14.0 °F80 %29.19 in2.5 miWest (280°)26.5 mph41.4 mphSnowLight Snow
6:00 PM19.4 °F15.8 °F86 %29.23 in5.0 miWest (260°)17.3 mph29.9 mphSnowLight Snow
7:00 PM19.4 °F12.2 °F74 %29.28 in5.0 miWest (260°)21.9 mph35.7 mphSnowLight Snow
8:00 PM19.0 °F10.0 °F55 %29.33 in5.0 miWest (260°)25.3 mphSnowLight Snow
8:00 PM19.4 °F10.4 °F68 %29.33 in5.0 miWest (260°)24.2 mph42.6 mphSnowLight Snow
9:00 PM17.6 °F6.8 °F63 %29.37 in5.0 miWest (260°)27.6 mph44.9 mphSnowLight Snow
9:43 PM17.6 °F6.8 °F63 %29.39 in12.0 miWSW (250°)26.5 mph38.0 mphSnowLow Drifting Snow
10:00 PM15.8 °F6.8 °F68 %29.39 in15.0 miWest (260°)20.7 mph36.8 mphSnowLow Drifting Snow
11:00 PM15.8 °F5.0 °F62 %29.42 in15.0 miWSW (250°)21.9 mph32.2 mphSnowLow Drifting Snow
Hourly data recorded from CYYG, located miles away from Charlottetown, Prince Edward Island







STORIES FROM OUR PARTNERS